"Timestamp","TZ","WindDir_Mean (deg)","WindSpd_Mean (km/h)","WindSpd_Min (km/h)","WindSpd_Max (km/h)","Temp_Mean (deg)","RH_Mean (%)","MSLP_Mean (hPa)","Rain_Acc (mm)","Rain_Intensity (mm/h)","Hail_Acc (hits/cm2)","Hail_Intensity (hits/cm2hr)","Solar_Mean (W/m2)"
2021/12/28 00:00:00.010,n,132,6.48,5.76,7.2,21.7,74.9,1011.02,0,0,0,0,0.017433
2021/12/28 00:01:00.000,n,150,10.440002,7.92,11.88,21.7,75.3,1011.02,0,0,0,0,0.020027
2021/12/28 00:02:00.000,n,133,5.04,4.32,5.4,21.6,75.9,1011.02,0,0,0,0,0.018311
2021/12/28 00:03:00.003,n,160,8.28,7.56,14.4,21.5,76.1,1011.02,0,0,0,0,0.017433
2021/12/28 00:04:00.001,n,155,10.8,9.72,11.88,21.5,76.6,1011.02,0,0,0,0,0.015678
2021/12/28 00:05:00.000,n,107,5.04,3.6,7.2,21.5,76.9,1011.02,0,0,0,0,0.023537
2021/12/28 00:06:00.007,n,127,9,7.92,10.08,21.4,77.3,1011.02,0,0,0,0,0.027885
2021/12/28 00:07:00.001,n,161,14.04,11.88,20.16,21.4,77.4,1011.02,0,0,0,0,0.024376
2021/12/28 00:08:00.002,n,150,12.96,11.16,19.08,21.3,77.4,1011.02,0,0,0,0,0.020905
2021/12/28 00:09:00.011,n,132,8.28,7.92,9.72,21.3,78.2,1011.02,0,0,0,0,0.024376
2021/12/28 00:10:00.000,n,124,1.44,0.36,4.68,21.2,78.8,1011.12,0,0,0,0,0.021744
2021/12/28 00:11:00.000,n,133,7.56,5.76,10.8,21.2,79,1011.12,0,0,0,0,0.021744
2021/12/28 00:12:00.000,n,128,4.68,3.24,6.12,21.2,79.3,1011.12,0,0,0,0,0.01915
2021/12/28 00:13:00.000,n,141,9.72,9.36,10.08,21.2,79.3,1011.12,0,0,0,0,0.01915
2021/12/28 00:14:00.010,n,126,7.92,7.2,9,21.1,79.8,1011.12,0,0,0,0,0.018311
2021/12/28 00:15:00.000,n,126,3.6,2.16,6.12,21.1,79.9,1011.12,0,0,0,0,0.017433
2021/12/28 00:16:00.001,n,125,2.16,1.44,6.12,21.1,80.1,1011.12,0,0,0,0,0.028687
2021/12/28 00:17:00.012,n,147,10.8,9,14.4,21.1,80.1,1011.12,0,0,0,0,0.030479
2021/12/28 00:18:00.000,n,169,7.56,6.12,12.6,21.1,80.4,1011.12,0,0,0,0,0.029564
2021/12/28 00:19:00.000,n,152,3.24,2.52,3.24,21,80.4,1011.12,0,0,0,0,0.026093
2021/12/28 00:20:00.000,n,147,6.48,6.12,7.2,21,80.7,1011.12,0,0,0,0,0.024338
2021/12/28 00:21:00.000,n,150,4.32,3.6,5.04,21,80.8,1011.12,0,0,0,0,0.02697
2021/12/28 00:22:00.004,n,110,5.04,3.96,5.76,21,80.8,1011.12,0,0,0,0,0.026093
2021/12/28 00:23:00.000,n,114,3.96,3.24,4.68,21,81,1011.12,0,0,0,0,0.022621
2021/12/28 00:24:00.001,n,127,5.76,5.4,6.48,21,81,1011.12,0,0,0,0,0.021744
2021/12/28 00:25:00.006,n,140,5.4,4.68,5.76,21,81.1,1011.12,0,0,0,0,0.022621
2021/12/28 00:26:00.012,n,172,10.08,6.48,13.32,21,81.1,1011.22,0,0,0,0,0.021744
2021/12/28 00:27:00.000,n,152,10.440002,9,14.76,21,81.1,1011.22,0,0,0,0,0.021744
2021/12/28 00:28:00.000,n,147,5.4,3.96,9.36,21,81.3,1011.22,0,0,0,0,0.018272
2021/12/28 00:29:00.000,n,145,6.48,4.32,8.64,21,81.3,1011.22,0,0,0,0,0.025253
2021/12/28 00:30:00.000,n,134,9,7.92,10.440002,21,81.3,1011.22,0,0,0,0,0.032234
2021/12/28 00:31:00.004,n,140,11.52,9.72,12.96,21,81.3,1011.22,0,0,0,0,0.031319
2021/12/28 00:32:00.000,n,145,6.84,6.12,7.92,21,81.5,1011.12,0,0,0,0,0.031319
2021/12/28 00:33:00.000,n,96,4.68,3.6,5.04,21,81.5,1011.12,0,0,0,0,0.028725
2021/12/28 00:34:00.006,n,123,6.48,5.76,7.92,21,81.5,1011.12,0,0,0,0,0.030479
2021/12/28 00:35:00.013,n,154,9.72,7.92,10.8,21,81.5,1011.12,0,0,0,0,0.025253
2021/12/28 00:36:00.003,n,149,11.16,9,14.76,21,81.4,1011.12,0,0,0,0,0.027008
2021/12/28 00:37:00.000,n,157,6.84,6.12,7.2,21,81.5,1011.12,0,0,0,0,0.026131
2021/12/28 00:38:00.000,n,119,10.08,8.64,11.88,21,81.5,1011.02,0,0,0,0,0.026131
2021/12/28 00:39:00.001,n,135,7.56,6.12,8.28,21,81.5,1011.02,0,0,0,0,0.027008
2021/12/28 00:40:00.006,n,117,12.24,11.52,13.68,21.1,81.5,1011.02,0,0,0,0,0.023537
2021/12/28 00:41:00.002,n,135,18.359998,13.32,20.880002,21.1,81.3,1011.02,0,0,0,0,0.025253
2021/12/28 00:42:00.008,n,105,12.24,9.36,13.68,21.1,81.2,1011.02,0,0,0,0,0.023537
2021/12/28 00:43:00.000,n,125,7.56,6.48,8.64,21,81.2,1011.02,0,0,0,0,0.021782
2021/12/28 00:44:00.002,n,163,11.52,7.2,15.12,21,81.1,1011.02,0,0,0,0,0.026131
2021/12/28 00:45:00.008,n,203,14.76,12.96,17.28,21,80.8,1011.02,0,0,0,0,0.020905
2021/12/28 00:46:00.000,n,162,17.64,12.96,21.599998,21,80.1,1010.92,0,0,0,0,0.021782
2021/12/28 00:47:00.004,n,174,21.96,15.48,29.519998,21,79.8,1010.92,0,0,0,0,0.022659
2021/12/28 00:48:00.000,n,136,9.36,8.28,11.16,21,79.4,1011.02,0,0,0,0,0.020027
2021/12/28 00:49:00.006,n,152,10.08,8.64,12.24,21.1,79.4,1011.02,0,0,0,0,0.024376
2021/12/28 00:50:00.000,n,195,16.56,10.440002,21.24,21.1,78.9,1011.02,0,0,0,0,0.020905
2021/12/28 00:51:00.001,n,157,7.2,6.12,13.32,21.1,78.9,1011.02,0,0,0,0,0.020027
2021/12/28 00:52:00.006,n,149,15.48,12.24,21.24,21.1,78.7,1010.92,0,0,0,0,0.024376
2021/12/28 00:53:00.011,n,134,17.28,11.88,20.16,21.1,78.2,1010.92,0,0,0,0,0.027847
2021/12/28 00:54:00.000,n,149,9.36,7.92,14.4,21.1,78.3,1010.92,0,0,0,0,0.025253
2021/12/28 00:55:00.000,n,157,13.32,8.28,15.12,21.1,78.2,1010.92,0,0,0,0,0.027847
2021/12/28 00:56:00.000,n,134,14.04,10.8,17.64,21.1,78,1010.92,0,0,0,0,0.026131
2021/12/28 00:57:00.005,n,137,15.12,12.6,16.56,21.1,77.9,1010.92,0,0,0,0,0.026131
2021/12/28 00:58:00.000,n,175,17.28,13.68,20.880002,21.1,77.4,1010.92,0,0,0,0,0.028725
2021/12/28 00:59:00.000,n,175,18,6.12,24.48,21,77,1010.92,0,0,0,0,0.01915
2021/12/28 01:00:00.005,n,168,20.16,14.04,25.199998,21,77.2,1010.92,0,0,0,0,0.022621
2021/12/28 01:01:00.010,n,137,3.24,1.44,9.36,21,77,1010.82,0,0,0,0,0.026131
2021/12/28 01:02:00.015,n,143,13.68,11.16,15.12,21,76.8,1010.82,0,0,0,0,0.025253
2021/12/28 01:03:00.003,n,131,18,16.56,19.44,21,76.7,1010.82,0,0,0,0,0.020905
2021/12/28 01:04:00.000,n,154,18,12.96,22.68,21,76.9,1010.82,0,0,0,0,0.023499
2021/12/28 01:05:00.000,n,160,10.08,6.12,14.04,21,76.9,1010.82,0,0,0,0,0.023499
2021/12/28 01:06:00.003,n,118,4.32,3.6,4.68,21,77.1,1010.92,0,0,0,0,0.021782
2021/12/28 01:07:00.000,n,191,4.32,2.52,9.36,21,77.3,1010.92,0,0,0,0,0.024376
2021/12/28 01:08:00.000,n,155,6.48,5.04,11.16,21,77.3,1010.82,0,0,0,0,0.01915
2021/12/28 01:09:00.005,n,155,11.52,9.36,15.84,21,77.2,1010.82,0,0,0,0,0.01915
2021/12/28 01:10:00.009,n,96,3.24,1.44,6.48,21,77.2,1010.92,0,0,0,0,0.01915
2021/12/28 01:11:00.000,n,164,11.16,7.56,11.88,21,76.8,1010.82,0,0,0,0,0.029602
2021/12/28 01:12:00.003,n,144,9.72,7.92,13.68,21,76.9,1010.82,0,0,0,0,0.034828
2021/12/28 01:13:00.000,n,125,11.52,9,12.6,21,77.2,1010.82,0,0,0,0,0.033073
2021/12/28 01:14:00.000,n,139,6.84,5.4,8.28,21,77.3,1010.82,0,0,0,0,0.032196
2021/12/28 01:15:00.002,n,153,11.88,11.16,15.12,21,77.2,1010.82,0,0,0,0,0.029602
2021/12/28 01:16:00.008,n,149,17.64,15.12,24.84,21,76.8,1010.82,0,0,0,0,0.031319
2021/12/28 01:17:00.000,n,145,8.64,7.2,13.32,21,77.1,1010.82,0,0,0,0,0.030479
2021/12/28 01:18:00.003,n,40,0.36,0.36,0.72,21,77.3,1010.82,0,0,0,0,0.030479
2021/12/28 01:19:00.009,n,92,2.52,2.16,3.6,21,77.3,1010.92,0,0,0,0,0.030479
2021/12/28 01:20:00.014,n,148,19.44,16.919998,28.08,21,77,1010.82,0,0,0,0,0.033073
2021/12/28 01:21:00.002,n,152,9,4.32,14.4,21,77,1010.92,0,0,0,0,0.028725
2021/12/28 01:22:00.000,n,162,10.8,7.92,14.4,21,76.9,1010.82,0,0,0,0,0.033073
2021/12/28 01:23:00.000,n,138,7.92,7.2,11.52,21,76.9,1010.82,0,0,0,0,0.029602
2021/12/28 01:24:00.000,n,159,11.52,10.8,17.64,21,76.9,1010.82,0,0,0,0,0.028725
2021/12/28 01:25:00.005,n,134,5.76,5.04,6.84,21,76.8,1010.82,0,0,0,0,0.033073
2021/12/28 01:26:00.000,n,146,17.64,14.76,19.44,21,76.6,1010.72,0,0,0,0,0.027885
2021/12/28 01:27:00.000,n,147,1.44,0.36,2.52,21,76.6,1010.82,0,0,0,0,0.027885
2021/12/28 01:28:00.006,n,119,5.4,1.44,10.8,21,76.6,1010.82,0,0,0,0,0.030479
2021/12/28 01:29:00.009,n,180,5.04,2.52,8.64,21,76.5,1010.82,0,0,0,0,0.028725
2021/12/28 01:30:00.014,n,192,7.2,5.4,14.76,21,76.6,1010.82,0,0,0,0,0.030479
2021/12/28 01:31:00.000,n,140,8.28,7.56,9,21.1,76.2,1010.72,0,0,0,0,0.028725
2021/12/28 01:32:00.000,n,177,12.6,8.64,16.56,21.1,76,1010.82,0,0,0,0,0.029602
2021/12/28 01:33:00.000,n,130,18.359998,16.56,20.16,21.1,75.9,1010.72,0,0,0,0,0.026093
2021/12/28 01:34:00.002,n,32,2.16,0.72,3.96,21.1,76,1010.72,0,0,0,0,0.026093
2021/12/28 01:35:00.007,n,187,12.96,11.16,14.04,21.1,75.8,1010.72,0,0,0,0,0.027885
2021/12/28 01:36:00.000,n,169,10.8,3.24,17.64,21.1,75.8,1010.72,0,0,0,0,0.02697
2021/12/28 01:37:00.004,n,153,18.359998,15.48,22.319998,21.1,75.6,1010.72,0,0,0,0,0.02697
2021/12/28 01:38:00.010,n,148,10.08,9.36,11.16,21.1,75.9,1010.72,0,0,0,0,0.026093
2021/12/28 01:39:00.014,n,171,3.96,2.16,9.36,21.1,75.7,1010.72,0,0,0,0,0.027885
2021/12/28 01:40:00.000,n,156,4.32,1.44,7.56,21.1,75.7,1010.72,0,0,0,0,0.029602
2021/12/28 01:41:00.003,n,190,10.440002,7.56,14.04,21.1,75.9,1010.72,0,0,0,0,0.030479
2021/12/28 01:42:00.003,n,189,14.76,12.96,20.519998,21.1,75.6,1010.72,0,0,0,0,0.02697
2021/12/28 01:43:00.000,n,170,19.08,12.96,23.04,21.1,75.6,1010.72,0,0,0,0,0.029602
2021/12/28 01:44:00.000,n,180,12.24,9,15.84,21.1,75.6,1010.72,0,0,0,0,0.028725
2021/12/28 01:45:00.003,n,140,8.64,7.56,9.72,21.1,75.9,1010.82,0,0,0,0,0.027885
2021/12/28 01:46:00.008,n,142,6.48,6.12,7.56,21.1,76.2,1010.82,0,0,0,0,0.026093
2021/12/28 01:47:00.002,n,191,24.119998,20.880002,26.64,21.1,75.8,1010.82,0,0,0,0,0.027885
2021/12/28 01:48:00.009,n,196,6.48,3.96,13.32,21.1,76.2,1010.82,0,0,0,0,0.027885
2021/12/28 01:49:00.000,n,142,16.919998,15.12,18.359998,21.1,76.4,1010.72,0,0,0,0,0.025253
2021/12/28 01:50:00.000,n,139,12.96,11.52,14.4,21.1,76.3,1010.82,0,0,0,0,0.027885
2021/12/28 01:51:00.004,n,173,10.8,6.12,14.76,21,76.3,1010.82,0,0,0,0,0.029602
2021/12/28 01:52:00.000,n,167,14.4,11.52,16.2,21,76.5,1010.82,0,0,0,0,0.028725
2021/12/28 01:53:00.000,n,157,7.92,3.96,12.24,21,76.8,1010.82,0,0,0,0,0.02697
2021/12/28 01:54:00.002,n,150,9.72,8.64,10.08,21,76.6,1010.82,0,0,0,0,0.024376
2021/12/28 01:55:00.007,n,142,8.64,6.84,9.36,21,76.8,1010.72,0,0,0,0,0.02697
2021/12/28 01:56:00.003,n,149,5.76,3.6,9.36,21,77,1010.72,0,0,0,0,0.024376
2021/12/28 01:57:00.009,n,163,11.16,7.56,13.32,21,77,1010.72,0,0,0,0,0.02697
2021/12/28 01:58:00.000,n,159,11.88,9,14.04,20.9,76.8,1010.72,0,0,0,0,0.026093
2021/12/28 01:59:00.004,n,135,5.76,2.52,8.64,20.9,76.8,1010.72,0,0,0,0,0.02697
2021/12/28 02:00:00.000,n,144,12.24,10.440002,12.96,20.9,76.7,1010.72,0,0,0,0,0.02697
2021/12/28 02:01:00.005,n,122,11.52,10.08,11.88,20.9,76.9,1010.72,0,0,0,0,0.022659
2021/12/28 02:02:00.006,n,145,6.48,5.4,7.2,21,77.1,1010.72,0,0,0,0,0.023499
2021/12/28 02:03:00.011,n,160,10.8,6.48,14.4,21,76.9,1010.72,0,0,0,0,0.022659
2021/12/28 02:04:00.000,n,139,5.4,4.68,9.72,21,77,1010.72,0,0,0,0,0.025253
2021/12/28 02:05:00.004,n,135,2.16,1.44,4.68,21,77.2,1010.72,0,0,0,0,0.024376
2021/12/28 02:06:00.010,n,162,12.24,10.08,17.28,21,77.1,1010.72,0,0,0,0,0.022659
2021/12/28 02:07:00.000,n,110,2.16,0.72,3.24,21,77.1,1010.72,0,0,0,0,0.026093
2021/12/28 02:08:00.000,n,149,7.92,7.2,8.64,21,77.3,1010.72,0,0,0,0,0.026093
2021/12/28 02:09:00.000,n,153,11.88,11.16,12.6,21,76.9,1010.72,0,0,0,0,0.025253
2021/12/28 02:10:00.000,n,158,12.24,8.64,14.76,21,77.1,1010.82,0,0,0,0,0.024376
2021/12/28 02:11:00.007,n,192,2.16,0.36,5.04,21,77.2,1010.82,0,0,0,0,0.023499
2021/12/28 02:12:00.000,n,72,2.16,1.44,3.24,21,77.7,1010.82,0,0,0,0,0.025253
2021/12/28 02:13:00.000,n,187,11.16,4.32,23.04,21,77.4,1010.72,0,0,0,0,0.023499
2021/12/28 02:14:00.009,n,184,19.8,16.919998,21.96,20.9,77.2,1010.72,0,0,0,0,0.025253
2021/12/28 02:15:00.013,n,133,9.36,7.56,14.4,20.9,77.6,1010.72,0,0,0,0,0.021744
2021/12/28 02:16:00.000,n,165,8.64,4.32,12.6,20.9,77.9,1010.72,0,0,0,0,0.023499
2021/12/28 02:17:00.000,n,156,9.72,8.28,10.8,20.9,77.9,1010.62,0,0,0,0,0.022659
2021/12/28 02:18:00.000,n,176,21.96,19.44,24.84,20.8,78,1010.62,0,0,0,0,0.024376
2021/12/28 02:19:00.003,n,198,6.48,5.04,8.28,20.8,78.4,1010.72,0,0,0,0,0.023499
2021/12/28 02:20:00.009,n,150,10.08,9.36,11.16,20.8,78.1,1010.62,0,0,0,0,0.029602
2021/12/28 02:21:00.000,n,167,8.28,6.48,11.16,20.8,78,1010.62,0,0,0,0,0.032196
2021/12/28 02:22:00.007,n,121,4.32,3.6,5.04,20.8,78.3,1010.62,0,0,0,0,0.031319
2021/12/28 02:23:00.000,n,121,3.96,1.44,9.36,20.8,78.3,1010.72,0,0,0,0,0.033951
2021/12/28 02:24:00.004,n,146,12.24,11.52,12.96,20.8,78.1,1010.72,0,0,0,0,0.033073
2021/12/28 02:25:00.000,n,154,5.76,3.96,7.2,20.8,78.2,1010.72,0,0,0,0,0.031319
2021/12/28 02:26:00.000,n,165,5.76,3.6,9,20.8,78.3,1010.72,0,0,0,0,0.03479
2021/12/28 02:27:00.005,n,149,7.56,3.24,15.48,20.8,78.3,1010.72,0,0,0,0,0.03479
2021/12/28 02:28:00.000,n,132,4.32,3.24,6.12,20.8,78.4,1010.72,0,0,0,0,0.030441
2021/12/28 02:29:00.001,n,165,12.24,8.64,15.48,20.8,78.4,1010.72,0,0,0,0,0.035667
2021/12/28 02:30:00.004,n,119,4.68,1.08,6.84,20.8,78.4,1010.72,0,0,0,0,0.03479
2021/12/28 02:31:00.009,n,166,10.8,7.92,12.6,20.8,78.5,1010.72,0,0,0,0,0.03479
2021/12/28 02:32:00.015,n,142,6.48,1.8,12.6,20.8,78.3,1010.72,0,0,0,0,0.030441
2021/12/28 02:33:00.003,n,195,6.48,4.32,8.64,20.8,78.4,1010.72,0,0,0,0,0.033951
2021/12/28 02:34:00.001,n,180,10.440002,7.56,18.72,20.8,78.3,1010.62,0,0,0,0,0.032196
2021/12/28 02:35:00.000,n,168,10.440002,3.24,18.72,20.8,78.3,1010.62,0,0,0,0,0.03479
2021/12/28 02:36:00.005,n,145,7.2,5.76,10.440002,20.8,78,1010.62,0,0,0,0,0.03479
2021/12/28 02:37:00.000,n,120,2.52,0.72,5.76,20.8,78.4,1010.72,0,0,0,0,0.036545
2021/12/28 02:38:00.000,n,139,3.6,3.24,3.96,20.9,78.4,1010.72,0,0,0,0,0.036545
2021/12/28 02:39:00.005,n,163,9.72,7.2,14.4,20.9,78.4,1010.72,0,0,0,0,0.03479
2021/12/28 02:40:00.011,n,112,15.48,9,22.319998,20.9,78.1,1010.62,0,0,0,0,0.033951
2021/12/28 02:41:00.000,n,168,10.8,6.84,14.4,20.8,78.2,1010.62,0,0,0,0,0.036545
2021/12/28 02:42:00.005,n,143,12.96,10.440002,17.64,20.8,78.3,1010.62,0,0,0,0,0.036545
2021/12/28 02:43:00.000,n,234,1.44,1.08,2.88,20.8,78.5,1010.62,0,0,0,0,0.035667
2021/12/28 02:44:00.000,n,131,3.96,0.36,6.12,20.8,78.6,1010.62,0,0,0,0,0.03479
2021/12/28 02:45:00.005,n,186,4.68,3.24,5.4,20.8,79.1,1010.62,0,0,0,0,0.03479
2021/12/28 02:46:00.000,n,156,13.32,11.16,17.28,20.8,79.2,1010.62,0,0,0,0,0.0383
2021/12/28 02:47:00.003,n,148,10.8,6.48,13.68,20.7,79.4,1010.62,0,0,0,0,0.0383
2021/12/28 02:48:00.005,n,159,14.4,10.440002,18.72,20.7,79.6,1010.62,0,0.1,0,0,0.0383
2021/12/28 02:49:00.012,n,195,16.919998,14.04,19.8,20.6,80,1010.62,0,0,0,0,0.040894
2021/12/28 02:50:00.006,n,190,9,7.2,11.88,20.6,80.4,1010.62,0,0,0,0,0.0383
2021/12/28 02:51:00.012,n,132,6.12,3.24,7.56,20.5,80.6,1010.62,0,0,0,0,0.041771
2021/12/28 02:52:00.001,n,174,13.32,11.16,18.72,20.4,80.9,1010.62,0,0,0,0,0.0383
2021/12/28 02:53:00.000,n,175,12.24,7.56,16.919998,20.4,81.2,1010.62,0,0,0,0,0.036545
2021/12/28 02:54:00.000,n,145,5.04,2.16,7.92,20.3,81.5,1010.62,0,0,0,0,0.0383
2021/12/28 02:55:00.008,n,119,11.16,8.28,12.6,20.3,81.6,1010.62,0,0,0,0,0.03479
2021/12/28 02:56:00.009,n,160,11.16,9.72,14.76,20.3,82,1010.72,0,0,0,0,0.03479
2021/12/28 02:57:00.000,n,147,8.64,7.92,9.36,20.2,82,1010.72,0,0,0,0,0.03479
2021/12/28 02:58:00.005,n,152,7.2,6.48,12.6,20.2,82.2,1010.72,0,0,0,0,0.03479
2021/12/28 02:59:00.010,n,175,3.96,2.16,7.92,20.2,82.7,1010.72,0,0,0,0,0.03479
2021/12/28 03:00:00.015,n,149,6.12,5.04,8.28,20.2,82.5,1010.72,0,0,0,0,0.031319
2021/12/28 03:01:00.000,n,173,13.32,8.28,16.56,20.2,82.5,1010.72,0,0,0,0,0.032196
2021/12/28 03:02:00.000,n,128,1.8,1.08,3.24,20.1,82.6,1010.72,0,0,0,0,0.028725
2021/12/28 03:03:00.000,n,190,9.72,7.56,13.32,20.2,82.7,1010.72,0,0,0,0,0.029602
2021/12/28 03:04:00.005,n,147,8.64,7.56,9.36,20.2,82.8,1010.72,0,0,0,0,0.029602
2021/12/28 03:05:00.009,n,150,13.68,11.52,15.84,20.1,82.7,1010.72,0,0,0,0,0.031319
2021/12/28 03:06:00.000,n,215,5.04,0.72,7.56,20.1,82.9,1010.82,0,0,0,0,0.031319
2021/12/28 03:07:00.005,n,166,11.52,9.72,15.84,20.1,83,1010.82,0,0,0,0,0.032196
2021/12/28 03:08:00.009,n,197,8.64,6.48,11.16,20.1,83.2,1010.82,0,0,0,0,0.031319
2021/12/28 03:09:00.003,n,186,11.52,9.36,16.2,20.1,83.2,1010.82,0,0,0,0,0.029602
2021/12/28 03:10:00.000,n,165,7.2,6.48,7.92,20.1,83.4,1010.82,0,0,0,0,0.027847
2021/12/28 03:11:00.000,n,77,3.6,1.08,6.12,20.1,83.7,1010.82,0,0,0,0,0.028725
2021/12/28 03:12:00.002,n,232,1.08,0.36,1.8,20.1,83.8,1010.82,0,0,0,0,0.027847
2021/12/28 03:13:00.000,n,188,9.36,8.64,10.440002,20.1,83.8,1010.82,0,0,0,0,0.027847
2021/12/28 03:14:00.000,n,176,3.6,2.52,5.4,20.1,84.1,1010.82,0,0,0,0,0.027847
2021/12/28 03:15:00.002,n,204,6.84,5.76,8.64,20.1,84.2,1010.82,0,0,0,0,0.02697
2021/12/28 03:16:00.010,n,199,5.04,3.6,5.76,20.1,84.1,1010.82,0,0,0,0,0.025215
2021/12/28 03:17:00.000,n,187,8.28,7.56,9.36,20.1,84.3,1010.82,0,0,0,0,0.027847
2021/12/28 03:18:00.004,n,167,12.96,11.16,16.2,20,84.1,1010.82,0,0,0,0,0.026093
2021/12/28 03:19:00.000,n,105,7.92,3.6,11.52,20,84.3,1010.82,0,0,0,0,0.026093
2021/12/28 03:20:00.000,n,162,10.440002,9,11.88,20,84.3,1010.82,0,0,0,0,0.026093
2021/12/28 03:21:00.003,n,172,7.56,5.76,9.72,20,84.4,1010.72,0,0,0,0,0.02697
2021/12/28 03:22:00.000,n,143,8.64,8.28,9.36,20,84.4,1010.72,0,0,0,0,0.024376
2021/12/28 03:23:00.000,n,131,4.68,3.24,5.76,19.9,84.6,1010.72,0,0,0,0,0.023499
2021/12/28 03:24:00.003,n,169,6.84,4.68,9,20,84.7,1010.72,0,0,0,0,0.023499
2021/12/28 03:25:00.000,n,168,1.8,1.08,3.6,20,84.8,1010.72,0,0,0,0,0.023499
2021/12/28 03:26:00.005,n,163,5.4,1.08,9.72,19.9,84.7,1010.72,0,0,0,0,0.023499
2021/12/28 03:27:00.012,n,111,2.88,1.8,3.96,20,84.9,1010.72,0,0,0,0,0.021744
2021/12/28 03:28:00.000,n,124,5.4,3.24,8.28,20,84.8,1010.82,0,0,0,0,0.021744
2021/12/28 03:29:00.000,n,142,9.72,8.64,11.88,19.9,84.7,1010.82,0,0,0,0,0.022621
2021/12/28 03:30:00.000,n,134,10.8,10.440002,11.16,19.9,84.8,1010.82,0,0,0,0,0.022621
2021/12/28 03:31:00.001,n,143,7.92,7.2,9,19.9,84.7,1010.82,0,0,0,0,0.021744
2021/12/28 03:32:00.008,n,168,2.52,1.44,3.6,19.9,84.9,1010.82,0,0,0,0,0.021744
2021/12/28 03:33:00.000,n,135,4.68,1.8,7.92,19.9,84.9,1010.82,0,0,0,0,0.021744
2021/12/28 03:34:00.003,n,161,14.4,13.68,15.12,19.9,84.8,1010.82,0,0,0,0,0.01915
2021/12/28 03:35:00.008,n,162,5.04,2.52,6.48,19.9,84.8,1010.92,0,0,0,0,0.031357
2021/12/28 03:36:00.000,n,184,6.84,5.76,7.92,19.9,84.9,1010.92,0,0,0,0,0.032234
2021/12/28 03:37:00.000,n,50,1.8,0.72,2.52,19.9,85,1010.82,0,0,0,0,0.031357
2021/12/28 03:38:00.000,n,202,2.88,2.52,4.32,19.9,85.1,1010.92,0,0,0,0,0.032234
2021/12/28 03:39:00.000,n,184,7.56,6.48,8.64,19.9,85.1,1010.92,0,0,0,0,0.031357
2021/12/28 03:40:00.005,n,199,3.96,2.52,6.48,19.9,85.2,1010.82,0,0,0,0,0.030441
2021/12/28 03:41:00.000,n,153,4.68,2.52,6.12,19.9,85.2,1010.82,0,0,0,0,0.029602
2021/12/28 03:42:00.002,n,184,8.28,6.48,9,19.9,85,1010.82,0,0,0,0,0.030441
2021/12/28 03:43:00.007,n,146,6.48,4.68,8.64,19.9,85.1,1010.82,0,0,0,0,0.033073
2021/12/28 03:44:00.012,n,162,3.6,2.52,5.04,19.9,85.2,1010.82,0,0,0,0,0.031357
2021/12/28 03:45:00.000,n,140,6.48,5.76,7.56,19.9,85.1,1010.82,0,0,0,0,0.028725
2021/12/28 03:46:00.000,n,193,9.72,9,10.440002,19.9,85,1010.82,0,0,0,0,0.029602
2021/12/28 03:47:00.004,n,139,5.76,2.88,7.92,19.9,85.1,1010.82,0,0,0,0,0.029602
2021/12/28 03:48:00.000,n,176,4.68,3.6,6.84,19.9,85.1,1010.82,0,0,0,0,0.027847
2021/12/28 03:49:00.000,n,174,3.6,1.08,5.76,19.9,85.1,1010.72,0,0,0,0,0.027847
2021/12/28 03:50:00.003,n,184,5.4,5.4,5.76,19.9,85.2,1010.72,0,0,0,0,0.032234
2021/12/28 03:51:00.009,n,162,10.8,10.08,12.24,19.9,85.1,1010.72,0,0,0,0,0.031357
2021/12/28 03:52:00.000,n,189,6.84,5.4,8.28,19.9,85.1,1010.72,0,0,0,0,0.030441
2021/12/28 03:53:00.002,n,154,5.04,2.16,7.56,19.9,85,1010.72,0,0,0,0,0.033073
2021/12/28 03:54:00.013,n,114,3.24,1.44,4.68,19.9,85,1010.62,0,0,0,0,0.027847
2021/12/28 03:55:00.001,n,122,10.8,7.92,13.32,19.9,84.6,1010.62,0,0,0,0,0.028725
2021/12/28 03:56:00.000,n,138,9.72,6.12,11.16,19.9,84.5,1010.72,0,0,0,0,0.030441
2021/12/28 03:57:00.000,n,105,7.92,4.32,10.8,19.9,84.6,1010.72,0,0,0,0,0.025215
2021/12/28 03:58:00.002,n,198,10.8,6.48,15.48,20,84.5,1010.72,0,0,0,0,0.025215
2021/12/28 03:59:00.007,n,138,9,6.84,13.68,20,84.3,1010.72,0,0,0,0,0.026093
2021/12/28 04:00:00.000,n,259,10.8,6.84,13.68,20,84.2,1010.72,0,0,0,0,0.027008
2021/12/28 04:01:00.000,n,143,6.12,1.8,8.28,20,84,1010.82,0,0,0,0,0.030441
2021/12/28 04:02:00.007,n,127,4.68,1.08,9.36,20,84.1,1010.82,0,0,0,0,0.027008
2021/12/28 04:03:00.012,n,146,16.56,10.08,24.119998,20,83.9,1010.82,0,0,0,0,0.027008
2021/12/28 04:04:00.001,n,160,13.68,9.72,20.519998,20,83.5,1010.82,0,0,0,0,0.027008
2021/12/28 04:05:00.000,n,141,7.2,4.68,8.28,20,83.7,1010.82,0,0,0,0,0.026093
2021/12/28 04:06:00.000,n,172,15.84,3.24,22.319998,20,83.6,1010.82,0,0,0,0,0.027847
2021/12/28 04:07:00.004,n,155,12.96,8.64,17.64,20,83.6,1010.92,0,0,0,0,0.025215
2021/12/28 04:08:00.000,n,215,4.68,3.96,5.76,20,83.5,1010.92,0,0,0,0,0.027847
2021/12/28 04:09:00.000,n,180,12.96,10.440002,18,20,83.6,1011.02,0,0,0,0,0.026093
2021/12/28 04:10:00.004,n,181,10.440002,8.28,11.88,20,83.4,1011.02,0,0,0,0,0.023499
2021/12/28 04:11:00.010,n,177,9.36,6.48,11.88,20,83.5,1011.02,0,0,0,0,0.024376
2021/12/28 04:12:00.014,n,175,5.04,4.32,6.48,20.1,83.6,1011.02,0,0,0,0,0.024376
2021/12/28 04:13:00.000,n,190,9.72,8.28,10.8,20.1,83.5,1011.02,0,0,0,0,0.027847
2021/12/28 04:14:00.000,n,177,3.6,2.52,4.68,20.1,83.7,1011.02,0,0,0,0,0.021782
2021/12/28 04:15:00.000,n,122,4.32,1.44,6.84,20.1,83.5,1011.02,0,0,0,0,0.025215
2021/12/28 04:16:00.003,n,199,15.12,13.32,16.56,20.1,83.5,1011.02,0,0,0,0,0.024376
2021/12/28 04:17:00.009,n,185,11.52,10.440002,12.24,20,83.3,1011.02,0,0,0,0,0.023499
2021/12/28 04:18:00.000,n,159,14.04,7.92,21.96,20,83.1,1011.02,0,0,0,0,0.026093
2021/12/28 04:19:00.003,n,133,13.32,10.8,16.2,20,83.1,1011.02,0,0,0,0,0.021782
2021/12/28 04:20:00.009,n,111,5.4,2.88,7.2,20,83.2,1011.02,0,0,0,0,0.025215
2021/12/28 04:21:00.014,n,176,13.68,9,19.08,20,82.9,1011.02,0,0,0,0,0.022621
2021/12/28 04:22:00.000,n,135,6.84,5.4,12.6,20,83.2,1011.12,0,0,0,0,0.025215
2021/12/28 04:23:00.000,n,114,6.84,0.36,9,20,83.3,1011.12,0,0,0,0,0.025215
2021/12/28 04:24:00.000,n,117,5.04,2.88,7.2,20,83.3,1011.12,0,0,0,0,0.029602
2021/12/28 04:25:00.005,n,211,5.04,2.52,9,20.1,83.4,1011.22,0,0,0,0,0.034828
2021/12/28 04:26:00.000,n,212,9.36,8.64,10.08,20.1,83.3,1011.22,0,0,0,0,0.034828
2021/12/28 04:27:00.001,n,268,6.84,3.6,9.72,20.1,83.3,1011.22,0,0,0,0,0.0383
2021/12/28 04:28:00.007,n,221,4.68,1.8,10.08,20,83.3,1011.22,0,0,0,0,0.040054
2021/12/28 04:29:00.012,n,165,10.440002,9.36,19.08,20,83.2,1011.32,0,0,0,0,0.042648
2021/12/28 04:30:00.017,n,216,7.56,4.32,9.36,20,83,1011.32,0,0,0,0,0.044403
2021/12/28 04:31:00.000,n,185,18.72,15.48,23.04,20,82.9,1011.32,0,0,0,0,0.046158
2021/12/28 04:32:00.000,n,166,10.8,7.92,13.68,20,83,1011.32,0,0,0,0,0.052223
2021/12/28 04:33:00.000,n,149,13.68,10.08,16.2,20,82.9,1011.32,0,0,0,0,0.057449
2021/12/28 04:34:00.007,n,154,7.2,2.16,11.16,20,82.8,1011.42,0,0,0,0,0.061798
2021/12/28 04:35:00.000,n,151,15.12,12.96,17.28,20,82.9,1011.42,0,0,0,0,0.08007
2021/12/28 04:36:00.002,n,166,17.64,13.32,20.880002,20,82.9,1011.42,0,0,0,0,0.093994
2021/12/28 04:37:00.006,n,160,12.96,10.8,17.64,20,82.9,1011.52,0,0,0,0,0.100098
2021/12/28 04:38:00.011,n,162,12.6,7.56,15.48,20,82.9,1011.52,0,0,0,0,0.134048
2021/12/28 04:39:00.019,n,165,12.96,8.64,14.4,20,82.8,1011.52,0,0,0,0,0.154037
2021/12/28 04:40:00.000,n,135,8.28,7.2,9.72,20,82.9,1011.52,0,0,0,0,0.184479
2021/12/28 04:41:00.000,n,130,9.36,7.56,11.52,20,82.8,1011.52,0,0,0,0,0.217514
2021/12/28 04:42:00.000,n,141,12.96,5.04,15.84,20,82.8,1011.52,0,0,0,0,0.249672
2021/12/28 04:43:00.005,n,127,5.04,1.8,10.440002,20,82.8,1011.52,0,0,0,0,0.286179
2021/12/28 04:44:00.000,n,171,13.68,6.48,19.44,20,82.7,1011.52,0,0,0,0,0.290527
2021/12/28 04:45:00.001,n,155,14.04,10.440002,18.359998,20,82.7,1011.52,0,0,0,0,0.339203
2021/12/28 04:46:00.005,n,156,11.52,4.68,19.8,20,82.8,1011.52,0,0,0,0,0.393944
2021/12/28 04:47:00.010,n,123,9,4.32,13.68,20,82.8,1011.52,0,0,0,0,0.459061
2021/12/28 04:48:00.015,n,169,11.52,7.92,14.04,20,82.9,1011.52,0,0,0,0,0.516357
2021/12/28 04:49:00.000,n,154,16.56,7.56,22.68,20,82.9,1011.52,0,0,0,0,0.573654
2021/12/28 04:50:00.000,n,151,23.04,16.2,30.239998,20,83,1011.42,0,0,0,0,0.735779
2021/12/28 04:51:00.000,n,193,5.4,2.88,6.48,20,83.3,1011.52,0,0,0,0,0.834961
2021/12/28 04:52:00.005,n,149,10.08,5.4,14.04,20,83.2,1011.42,0,0,0,0,0.887184